PEGASUS R/B, 41892

Orbit data source: Space-Track

PEGASUS R/B, 41892 is space debris in LEO originally from a launch on Thu, 15 Dec 2016 UTC launched from the Pegasus Launch, Eastern Range Air Space (ERAS). Debris objects in space refer to the collection of defunct objects orbiting the Earth. Examples of debris include non-operational satellites, rocket bodies, and fragments generated from explosions, collisions, or faulty payload assembly.

Loading next visibility...
Identifier
41892, 2016-078J
Orbit
LEO
Country
Flag of USUS
Related business
Manufacturer
OATK FSG Utah
Mission
Spacecraft
Bus & Motor
ORION 38, Unknown motor
Mass
315 kg wet, 202 kg dry
Launch date (UTC)
2016-12-15 (9 years ago)
Launch vehicle
Unknown
Launch site
Pegasus Launch, Eastern Range Air Space (ERAS)
Object type
Payload
Rocket body
Debris
Shape & HBR
Cyl + 1 Nozzle, 0.7 m
Radar Cross Section
1.381 m², Large (>1 m²)

Expand to show TLE details & history
Last TLE update: 21 hours ago

TLE from 21 hours ago
0 PEGASUS R/B
1 41892U 16078J   25290.88608605  .00041652  00000-0  65167-3 0  9991
2 41892  34.9352 357.4751 0008681  82.0998 278.0710 15.52644667491750
Epoch: 2025-10-17T21:15Z
TLE epoch observation values (Epoch: 2025-10-17T21:15:57.834Z)
Latitude
-0.00002°
Longitude
11.85908°
Altitude
407.072 km
Speed
7.669 km/s
True Right ascension
23h 49m 54s
True Declination
0° 00' 00"
Sunlit
Object was in full shadow at epoch
Visualization orbit readout
Latitude
Unknown
Longitude
Unknown
Altitude
Unknown
Speed
Unknown
Apparent Right ascension
Unknown
Apparent Declination
Unknown
Sunlit
N/A
Visualization observer readout
Local Sidereal Time
13:29:56
Azimuth
Unknown
Elevation
Unknown
Doppler factor
Unknown
Orbital elements
Apogee altitude
418.205 km
Perigee altitude
406.416 km
Semi-major axis
6,790.447 km
Eccentricity
0.00087
Inclination
34.9352°
RAAN
357.4751°
Arg. of periapsis
82.0998°
True anomaly
277.97249°
Mean anomaly
278.071°
Eccentric anomaly
278.02175°
Mean motion
3.87878 °/min
Orbital period
92.81 mins
BSTAR
0.00065167
Loading maneuver chart data...
Computing Atmospheric mass density...
Loading historical data...
Loading historical data...
Loading historical data...
Loading historical data...
Loading historical data...
Loading historical data...
Loading historical data...

Documentation

Showing up to 5 results
|